Location: Buchloe
(48.0161°N, 10.7316°E)
Time: 04:49:13
(UTC+01:00)

ISS - Pass Details

Date: 05 December 2021
Orbit: 413 x 422 km, 51.6° (Epoch: 29 January)

Event Time Altitude Azimuth Distance (km) Brightness Sun altitude
Rises 18:37:31 0° 290° (WNW) 2,384 1.1 -21.3°
Reaches altitude 10° 18:39:46 10° 280° (W) 1,513 0.1 -21.7°
Maximum altitude 18:42:48 30° 217° (SW) 780 -2.0 -22.2°
Enters shadow 18:43:36 27° 189° (S) 852 -2.1 -22.3°
